Dew Point Data


Current

Temp 69.0 F. Dew Point 53.1 F.


Dew Point Comfort Scale

dewpoints

Date, Time Temperature Dew Point
Wed Sep 25 00:08:05 2019 63.0 F. 59.0 F.
Wed Sep 25 01:08:04 2019 62.0 F. 57.9 F.
Wed Sep 25 02:08:05 2019 64.0 F. 60.1 F.
Wed Sep 25 03:08:05 2019 64.0 F. 60.1 F.
Wed Sep 25 04:08:05 2019 63.0 F. 59.0 F.
Wed Sep 25 05:08:05 2019 64.0 F. 57.9 F.
Wed Sep 25 06:08:05 2019 65.0 F. 57.0 F.
Wed Sep 25 07:08:05 2019 64.0 F. 55.9 F.
Wed Sep 25 08:08:05 2019 67.0 F. 57.0 F.
Wed Sep 25 09:08:04 2019 70.0 F. 57.0 F.
Wed Sep 25 10:08:05 2019 73.0 F. 55.9 F.
Wed Sep 25 11:08:05 2019 75.0 F. 61.0 F.
Wed Sep 25 12:08:09 2019 80.0 F. 66.9 F.
Wed Sep 25 13:08:05 2019 83.0 F. 68.0 F.
Wed Sep 25 14:08:05 2019 83.0 F. 68.0 F.
Wed Sep 25 15:08:04 2019 82.0 F. 69.1 F.
Wed Sep 25 16:08:04 2019 83.0 F. 70.0 F.
Wed Sep 25 17:08:05 2019 81.0 F. 70.0 F.
Wed Sep 25 18:08:04 2019 79.0 F. 70.0 F.
Wed Sep 25 19:08:05 2019 76.0 F. 70.0 F.
Wed Sep 25 20:08:05 2019 72.0 F. 68.0 F.
Wed Sep 25 21:08:04 2019 72.0 F. 69.1 F.
Wed Sep 25 22:08:04 2019 69.0 F. 66.9 F.
Wed Sep 25 23:08:04 2019 69.0 F. 68.0 F.
Thu Sep 26 00:08:04 2019 69.0 F. 68.0 F.
Thu Sep 26 01:08:05 2019 69.0 F. 68.0 F.
Thu Sep 26 02:08:05 2019 71.0 F. 69.1 F.
Thu Sep 26 03:08:05 2019 71.0 F. 63.0 F.
Thu Sep 26 04:08:05 2019 67.0 F. 57.0 F.
Thu Sep 26 05:08:06 2019 68.0 F. 50.0 F.
Thu Sep 26 06:08:04 2019 67.0 F. 51.1 F.
Thu Sep 26 07:08:04 2019 66.0 F. 50.0 F.
Thu Sep 26 08:08:04 2019 65.0 F. 51.1 F.
Thu Sep 26 09:08:05 2019 67.0 F. 52.0 F.
Thu Sep 26 10:08:04 2019 69.0 F. 53.1 F.
Thu Sep 26 11:08:05 2019 71.0 F. 51.1 F.
Thu Sep 26 12:08:06 2019 74.0 F. 51.1 F.
Thu Sep 26 13:08:05 2019 77.0 F. 48.0 F.
Thu Sep 26 14:08:05 2019 76.0 F. 46.0 F.
Thu Sep 26 15:08:05 2019 79.0 F. 45.0 F.
Thu Sep 26 16:08:05 2019 79.0 F. 43.0 F.
Thu Sep 26 17:08:05 2019 78.0 F. 43.0 F.
Thu Sep 26 18:08:32 2019
Thu Sep 26 19:08:40 2019
Thu Sep 26 20:08:05 2019 62.0 F. 53.1 F.
Thu Sep 26 21:08:05 2019 59.0 F. 53.1 F.
Thu Sep 26 22:08:05 2019 58.0 F. 53.1 F.
Thu Sep 26 23:08:04 2019 57.0 F. 54.0 F.
Fri Sep 27 00:08:05 2019 58.0 F. 54.0 F.
Fri Sep 27 01:08:05 2019 57.0 F. 55.0 F.
Fri Sep 27 02:08:05 2019 57.0 F. 55.0 F.
Fri Sep 27 03:08:05 2019 59.0 F. 55.0 F.
Fri Sep 27 04:08:04 2019 58.0 F. 54.0 F.
Fri Sep 27 05:08:04 2019 60.0 F. 55.0 F.
Fri Sep 27 06:08:05 2019 61.0 F. 57.0 F.
Fri Sep 27 07:08:05 2019 66.0 F. 60.1 F.
Fri Sep 27 08:08:05 2019 67.0 F. 62.1 F.
Fri Sep 27 09:08:04 2019 72.0 F. 64.9 F.
Fri Sep 27 10:08:05 2019 75.0 F. 66.0 F.
Fri Sep 27 11:08:04 2019 80.0 F. 66.9 F.
Fri Sep 27 12:08:04 2019 86.0 F. 66.0 F.
Fri Sep 27 13:08:05 2019 89.0 F. 63.0 F.
Fri Sep 27 14:08:05 2019 90.0 F. 64.9 F.
Fri Sep 27 15:08:05 2019 91.0 F. 64.0 F.
Fri Sep 27 16:08:04 2019 90.0 F. 64.9 F.
Fri Sep 27 17:08:05 2019 89.0 F. 64.0 F.
Fri Sep 27 18:08:05 2019 87.0 F. 64.9 F.
Fri Sep 27 19:08:04 2019 82.0 F. 64.0 F.
Fri Sep 27 20:08:04 2019 65.0 F. 51.1 F.
Fri Sep 27 21:08:05 2019 76.0 F. 64.9 F.
Fri Sep 27 22:08:54 2019
Fri Sep 27 23:08:05 2019 79.0 F. 64.9 F.
Sat Sep 28 00:08:05 2019 77.0 F. 66.0 F.
Sat Sep 28 01:08:05 2019 75.0 F. 64.9 F.
Sat Sep 28 02:08:05 2019 73.0 F. 64.0 F.
Sat Sep 28 03:08:05 2019 70.0 F. 64.0 F.
Sat Sep 28 04:08:05 2019 69.0 F. 63.0 F.
Sat Sep 28 05:08:04 2019 68.0 F. 64.0 F.
Sat Sep 28 06:08:04 2019 67.0 F. 64.0 F.
Sat Sep 28 07:08:05 2019 66.0 F. 63.0 F.
Sat Sep 28 08:08:04 2019 70.0 F. 64.9 F.
Sat Sep 28 09:08:04 2019 77.0 F. 66.0 F.
Sat Sep 28 10:08:04 2019 81.0 F. 66.0 F.
Sat Sep 28 11:08:04 2019 85.0 F. 66.0 F.
Sat Sep 28 12:08:04 2019 88.0 F. 66.0 F.
Sat Sep 28 13:08:05 2019 87.0 F. 68.0 F.
Sat Sep 28 14:08:05 2019 89.0 F. 68.0 F.
Sat Sep 28 15:08:05 2019 89.0 F. 68.0 F.
Sat Sep 28 16:08:04 2019 90.0 F. 66.9 F.
Sat Sep 28 17:08:04 2019 88.0 F. 66.9 F.
Sat Sep 28 18:08:05 2019 85.0 F. 66.9 F.
Sat Sep 28 19:08:05 2019 80.0 F. 68.0 F.
Sat Sep 28 20:08:04 2019 76.0 F. 68.0 F.
Sat Sep 28 21:08:05 2019 74.0 F. 68.0 F.
Sat Sep 28 22:08:04 2019 74.0 F. 69.1 F.
Sat Sep 28 23:08:05 2019 74.0 F. 69.1 F.
Sun Sep 29 00:08:05 2019 73.0 F. 69.1 F.
Sun Sep 29 01:08:05 2019 72.0 F. 68.0 F.
Sun Sep 29 02:08:05 2019 72.0 F. 68.0 F.
Sun Sep 29 03:08:05 2019 72.0 F. 66.9 F.
Sun Sep 29 04:08:05 2019 73.0 F. 66.9 F.
Sun Sep 29 05:08:05 2019 74.0 F. 66.0 F.
Sun Sep 29 06:08:05 2019 72.0 F. 66.0 F.
Sun Sep 29 07:08:05 2019 72.0 F. 66.9 F.
Sun Sep 29 08:08:05 2019 75.0 F. 66.9 F.
Sun Sep 29 09:08:04 2019 81.0 F. 68.0 F.
Sun Sep 29 10:08:40 2019
Sun Sep 29 11:08:14 2019 88.0 F. 68.0 F.
Sun Sep 29 12:08:14 2019 91.0 F. 68.0 F.
Sun Sep 29 13:08:14 2019 93.0 F. 68.0 F.
Sun Sep 29 14:08:14 2019 91.0 F. 66.9 F.
Sun Sep 29 15:08:14 2019 92.0 F. 66.9 F.
Sun Sep 29 16:08:15 2019 92.0 F. 66.9 F.
Sun Sep 29 17:08:15 2019 91.0 F. 64.9 F.
Sun Sep 29 18:08:15 2019 88.0 F. 66.9 F.
Sun Sep 29 19:08:14 2019 81.0 F. 66.9 F.
Sun Sep 29 20:08:14 2019 76.0 F. 66.9 F.
Sun Sep 29 21:08:28 2019 74.0 F. 68.0 F.
Sun Sep 29 22:08:35 2019 74.0 F. 68.0 F.
Sun Sep 29 23:08:15 2019 72.0 F. 66.9 F.
Mon Sep 30 00:08:16 2019 71.0 F. 66.9 F.
Mon Sep 30 01:09:00 2019
Mon Sep 30 02:09:00 2019
Mon Sep 30 03:09:00 2019
Mon Sep 30 04:08:29 2019 68.0 F. 64.9 F.
Mon Sep 30 05:09:00 2019
Mon Sep 30 06:08:14 2019 66.0 F. 64.0 F.
Mon Sep 30 07:08:15 2019 66.0 F. 64.0 F.
Mon Sep 30 08:08:14 2019 72.0 F. 68.0 F.
Mon Sep 30 09:08:14 2019 80.0 F. 69.1 F.
Mon Sep 30 10:09:00 2019
Mon Sep 30 11:09:00 2019
Mon Sep 30 12:08:15 2019 90.0 F. 66.9 F.
Mon Sep 30 13:08:15 2019 92.0 F. 66.9 F.
Mon Sep 30 14:08:29 2019 93.0 F. 66.0 F.
Mon Sep 30 15:08:15 2019 93.0 F. 66.0 F.
Mon Sep 30 16:08:15 2019 92.0 F. 64.0 F.
Mon Sep 30 17:08:15 2019 91.0 F. 64.0 F.
Mon Sep 30 18:08:14 2019 89.0 F. 64.9 F.
Mon Sep 30 19:08:15 2019 82.0 F. 66.0 F.
Mon Sep 30 20:08:15 2019 76.0 F. 66.0 F.
Mon Sep 30 21:08:15 2019 73.0 F. 66.0 F.
Mon Sep 30 22:08:15 2019 72.0 F. 66.0 F.
Mon Sep 30 23:08:15 2019 72.0 F. 66.0 F.
Tue Oct 1 00:08:14 2019 72.0 F. 66.0 F.
Tue Oct 1 01:08:15 2019 71.0 F. 66.0 F.
Tue Oct 1 02:08:15 2019 70.0 F. 64.9 F.
Tue Oct 1 03:08:15 2019 68.0 F. 66.0 F.
Tue Oct 1 04:08:15 2019 67.0 F. 64.0 F.
Tue Oct 1 05:08:15 2019 68.0 F. 64.9 F.
Tue Oct 1 06:08:15 2019 66.0 F. 63.0 F.
Tue Oct 1 07:08:29 2019 66.0 F. 64.9 F.
Tue Oct 1 08:08:14 2019 69.0 F. 66.0 F.
Tue Oct 1 09:08:31 2019 79.0 F. 69.1 F.
Tue Oct 1 10:08:14 2019 86.0 F. 66.9 F.
Tue Oct 1 11:08:15 2019 89.0 F. 66.9 F.
Tue Oct 1 12:08:15 2019 92.0 F. 66.9 F.
Tue Oct 1 13:08:15 2019 92.0 F. 64.9 F.
Tue Oct 1 14:08:14 2019 93.0 F. 66.0 F.
Tue Oct 1 15:08:14 2019 93.0 F. 68.0 F.
Tue Oct 1 16:08:15 2019 93.0 F. 66.0 F.
Tue Oct 1 17:08:15 2019 92.0 F. 64.0 F.
Tue Oct 1 18:08:15 2019 88.0 F. 64.0 F.
Tue Oct 1 19:08:14 2019 82.0 F. 64.9 F.
Tue Oct 1 20:08:15 2019 82.0 F. 64.9 F.
Tue Oct 1 21:09:00 2019
Tue Oct 1 22:09:00 2019
Tue Oct 1 23:08:15 2019 72.0 F. 64.9 F.
Wed Oct 2 00:08:15 2019 72.0 F. 66.9 F.
Wed Oct 2 01:08:15 2019 72.0 F. 66.9 F.
Wed Oct 2 02:08:16 2019 69.0 F. 64.9 F.
Wed Oct 2 03:08:15 2019 68.0 F. 64.0 F.
Wed Oct 2 04:08:14 2019 71.0 F. 64.9 F.
Wed Oct 2 05:08:15 2019 66.0 F. 64.0 F.
Wed Oct 2 06:08:14 2019 68.0 F. 64.0 F.
Wed Oct 2 07:08:14 2019 67.0 F. 64.0 F.
Wed Oct 2 08:08:15 2019 72.0 F. 66.9 F.
Wed Oct 2 09:08:14 2019 79.0 F. 68.0 F.
Wed Oct 2 10:08:14 2019 86.0 F. 66.9 F.
Wed Oct 2 11:08:14 2019 86.0 F. 66.9 F.
Wed Oct 2 12:08:07 2019 92.0 F. 66.0 F.
Wed Oct 2 13:08:04 2019 92.0 F. 66.0 F.
Wed Oct 2 14:08:05 2019 95.0 F. 64.9 F.
Wed Oct 2 15:08:05 2019 95.0 F. 63.0 F.
Wed Oct 2 16:08:08 2019 94.0 F. 64.0 F.
Wed Oct 2 17:08:04 2019 94.0 F. 64.0 F.
Wed Oct 2 18:08:05 2019 89.0 F. 63.0 F.
Wed Oct 2 19:08:05 2019 89.0 F. 63.0 F.
Wed Oct 2 20:08:33 2019
Wed Oct 2 21:08:05 2019 74.0 F. 64.0 F.
Wed Oct 2 22:08:05 2019 74.0 F. 64.0 F.
Wed Oct 2 23:08:05 2019 74.0 F. 63.0 F.
Thu Oct 3 00:08:04 2019 69.0 F. 63.0 F.
Thu Oct 3 01:08:05 2019 69.0 F. 62.1 F.
Thu Oct 3 02:08:04 2019 66.0 F. 62.1 F.
Thu Oct 3 03:08:05 2019 67.0 F. 62.1 F.
Thu Oct 3 04:08:05 2019 65.0 F. 61.0 F.
Thu Oct 3 05:08:05 2019 67.0 F. 62.1 F.
Thu Oct 3 06:08:05 2019 66.0 F. 62.1 F.
Thu Oct 3 07:08:05 2019 66.0 F. 62.1 F.
Thu Oct 3 08:08:05 2019 69.0 F. 64.9 F.
Thu Oct 3 09:08:05 2019 79.0 F. 66.0 F.
Thu Oct 3 10:08:05 2019 82.0 F. 68.0 F.
Thu Oct 3 11:08:05 2019 85.0 F. 69.1 F.
Thu Oct 3 12:08:05 2019 83.0 F. 69.1 F.
Thu Oct 3 13:08:05 2019 83.0 F. 68.0 F.
Thu Oct 3 14:08:04 2019 84.0 F. 66.0 F.
Thu Oct 3 15:08:05 2019 83.0 F. 63.0 F.
Thu Oct 3 16:08:04 2019 84.0 F. 60.1 F.
Thu Oct 3 17:08:05 2019 82.0 F. 57.9 F.
Thu Oct 3 18:08:05 2019 78.0 F. 55.0 F.
Thu Oct 3 19:08:05 2019 71.0 F. 55.0 F.
Thu Oct 3 20:08:05 2019 68.0 F. 55.0 F.
Thu Oct 3 21:08:05 2019 66.0 F. 53.1 F.
Thu Oct 3 22:08:05 2019 62.0 F. 53.1 F.
Thu Oct 3 23:08:04 2019 62.0 F. 52.0 F.
Fri Oct 4 00:08:05 2019 59.0 F. 51.1 F.
Fri Oct 4 01:08:05 2019 59.0 F. 51.1 F.
Fri Oct 4 02:08:05 2019 57.0 F. 50.0 F.
Fri Oct 4 03:08:05 2019 57.0 F. 50.0 F.
Fri Oct 4 04:08:05 2019 53.0 F. 48.9 F.
Fri Oct 4 05:08:04 2019 53.0 F. 48.9 F.
Fri Oct 4 06:08:05 2019 52.0 F. 48.0 F.
Fri Oct 4 07:08:05 2019 52.0 F. 48.0 F.
Fri Oct 4 08:08:04 2019 54.0 F. 46.9 F.
Fri Oct 4 09:08:05 2019 58.0 F. 48.0 F.
Fri Oct 4 10:08:05 2019 64.0 F. 48.9 F.
Fri Oct 4 11:08:04 2019 67.0 F. 48.9 F.
Fri Oct 4 12:08:05 2019 67.0 F. 48.9 F.
Fri Oct 4 13:08:05 2019 72.0 F. 48.9 F.
Fri Oct 4 14:08:05 2019 72.0 F. 48.9 F.
Fri Oct 4 15:08:05 2019 76.0 F. 48.0 F.
Fri Oct 4 16:08:04 2019 75.0 F. 46.9 F.
Fri Oct 4 17:08:05 2019 73.0 F. 46.9 F.
Fri Oct 4 18:08:05 2019 73.0 F. 46.9 F.
Fri Oct 4 19:08:05 2019 67.0 F. 46.0 F.
Fri Oct 4 20:08:05 2019 63.0 F. 46.9 F.
Fri Oct 4 21:08:04 2019 60.0 F. 46.9 F.
Fri Oct 4 22:08:05 2019 59.0 F. 46.0 F.
Fri Oct 4 23:08:05 2019 59.0 F. 46.0 F.
Sat Oct 5 00:08:40 2019
Sat Oct 5 01:08:40 2019
Sat Oct 5 02:08:40 2019
Sat Oct 5 03:08:40 2019
Sat Oct 5 04:08:40 2019
Sat Oct 5 05:08:15 2019 51.0 F. 48.0 F.
Sat Oct 5 06:08:15 2019 50.0 F. 48.0 F.
Sat Oct 5 07:08:14 2019 48.0 F. 45.0 F.
Sat Oct 5 08:08:14 2019 53.0 F. 50.0 F.
Sat Oct 5 09:08:15 2019 58.0 F. 48.9 F.
Sat Oct 5 10:08:14 2019 65.0 F. 48.9 F.
Sat Oct 5 11:08:14 2019 70.0 F. 50.0 F.
Sat Oct 5 12:08:15 2019 76.0 F. 50.0 F.
Sat Oct 5 13:08:15 2019 81.0 F. 46.9 F.
Sat Oct 5 14:08:15 2019 84.0 F. 46.9 F.
Sat Oct 5 15:08:15 2019 84.0 F. 45.0 F.
Sat Oct 5 16:08:15 2019 81.0 F. 44.1 F.
Sat Oct 5 17:08:15 2019 72.0 F. 55.0 F.
Sat Oct 5 18:08:15 2019 68.0 F. 55.9 F.
Sat Oct 5 19:08:15 2019 67.0 F. 59.0 F.
Sat Oct 5 20:08:14 2019 65.0 F. 59.0 F.
Sat Oct 5 21:08:14 2019 65.0 F. 60.1 F.
Sat Oct 5 22:08:15 2019 69.0 F. 54.0 F.
Sat Oct 5 23:08:14 2019 70.0 F. 53.1 F.
Sun Oct 6 00:08:15 2019 64.0 F. 55.9 F.
Sun Oct 6 01:08:15 2019 60.0 F. 55.0 F.
Sun Oct 6 02:08:15 2019 61.0 F. 57.0 F.
Sun Oct 6 03:08:15 2019 61.0 F. 55.9 F.
Sun Oct 6 04:08:14 2019 60.0 F. 55.9 F.
Sun Oct 6 05:08:14 2019 59.0 F. 55.9 F.
Sun Oct 6 06:08:14 2019 61.0 F. 57.9 F.
Sun Oct 6 07:08:15 2019 62.0 F. 59.0 F.
Sun Oct 6 08:08:14 2019 64.0 F. 61.0 F.
Sun Oct 6 09:08:14 2019 66.0 F. 62.1 F.
Sun Oct 6 10:08:14 2019 67.0 F. 62.1 F.
Sun Oct 6 11:08:14 2019 67.0 F. 61.0 F.
Sun Oct 6 12:08:15 2019 67.0 F. 61.0 F.
Sun Oct 6 13:08:14 2019 65.0 F. 61.0 F.
Sun Oct 6 14:08:14 2019 65.0 F. 63.0 F.
Sun Oct 6 15:08:14 2019 63.0 F. 61.0 F.
Sun Oct 6 16:08:15 2019 60.0 F. 57.0 F.
Sun Oct 6 17:08:15 2019 59.0 F. 55.9 F.
Sun Oct 6 18:08:14 2019 59.0 F. 55.9 F.
Sun Oct 6 19:08:15 2019 58.0 F. 55.9 F.
Sun Oct 6 20:08:15 2019 59.0 F. 55.9 F.
Sun Oct 6 21:08:15 2019 59.0 F. 55.9 F.
Sun Oct 6 22:08:15 2019 59.0 F. 55.9 F.
Sun Oct 6 23:08:15 2019 59.0 F. 55.9 F.
Mon Oct 7 00:08:15 2019 59.0 F. 55.9 F.
Mon Oct 7 01:08:14 2019 59.0 F. 55.9 F.
Mon Oct 7 02:08:15 2019 59.0 F. 57.0 F.
Mon Oct 7 03:08:15 2019 59.0 F. 55.9 F.
Mon Oct 7 04:08:15 2019 58.0 F. 55.9 F.
Mon Oct 7 05:08:14 2019 57.0 F. 55.0 F.
Mon Oct 7 06:08:14 2019 56.0 F. 53.1 F.
Mon Oct 7 07:08:15 2019 54.0 F. 50.0 F.
Mon Oct 7 08:08:14 2019 53.0 F. 50.0 F.
Mon Oct 7 09:08:15 2019 53.0 F. 50.0 F.
Mon Oct 7 10:08:07 2019 63.0 F. 50.0 F.
Mon Oct 7 11:08:04 2019 65.0 F. 46.9 F.
Mon Oct 7 12:08:04 2019 69.0 F. 46.0 F.
Mon Oct 7 13:08:05 2019 72.0 F. 43.0 F.
Mon Oct 7 14:08:05 2019 73.0 F. 37.9 F.
Mon Oct 7 15:08:04 2019 74.0 F. 39.0 F.
Mon Oct 7 16:08:05 2019 75.0 F. 33.1 F.
Mon Oct 7 17:08:04 2019 74.0 F. 36.0 F.
Mon Oct 7 18:08:05 2019 71.0 F. 37.9 F.
Mon Oct 7 19:08:04 2019 59.0 F. 46.9 F.
Mon Oct 7 20:08:04 2019 54.0 F. 48.0 F.
Mon Oct 7 21:08:04 2019 51.0 F. 46.9 F.
Mon Oct 7 22:08:05 2019 50.0 F. 46.9 F.
Mon Oct 7 23:08:05 2019 47.0 F. 45.0 F.
Tue Oct 8 00:08:05 2019 46.0 F. 44.1 F.
Tue Oct 8 01:08:05 2019 48.0 F. 46.9 F.
Tue Oct 8 02:08:05 2019 45.0 F. 43.0 F.
Tue Oct 8 03:08:05 2019 44.0 F. 43.0 F.
Tue Oct 8 04:08:04 2019 43.0 F. 42.1 F.
Tue Oct 8 05:08:05 2019 43.0 F. 41.0 F.
Tue Oct 8 06:08:05 2019 42.0 F. 41.0 F.
Tue Oct 8 07:08:04 2019 44.0 F. 42.1 F.
Tue Oct 8 08:08:04 2019 46.0 F. 45.0 F.
Tue Oct 8 09:08:05 2019 53.0 F. 50.0 F.
Tue Oct 8 10:08:04 2019 62.0 F. 52.0 F.
Tue Oct 8 11:08:05 2019 69.0 F. 46.0 F.
Tue Oct 8 12:08:04 2019 72.0 F. 42.1 F.
Tue Oct 8 13:08:04 2019 72.0 F. 42.1 F.
Tue Oct 8 14:08:05 2019 73.0 F. 39.9 F.
Tue Oct 8 15:08:04 2019 75.0 F. 41.0 F.
Tue Oct 8 16:08:04 2019 75.0 F. 41.0 F.
Tue Oct 8 17:08:05 2019 74.0 F. 41.0 F.
Tue Oct 8 18:08:05 2019 74.0 F. 41.0 F.
Tue Oct 8 19:08:04 2019 60.0 F. 46.9 F.
Tue Oct 8 20:08:04 2019 54.0 F. 48.9 F.
Tue Oct 8 21:08:04 2019 54.0 F. 48.9 F.
Tue Oct 8 22:08:05 2019 50.0 F. 46.9 F.
Tue Oct 8 23:08:04 2019 50.0 F. 46.9 F.
Wed Oct 9 00:08:05 2019 47.0 F. 44.1 F.
Wed Oct 9 01:08:04 2019 45.0 F. 43.0 F.
Wed Oct 9 02:08:05 2019 46.0 F. 44.1 F.
Wed Oct 9 03:08:05 2019 42.0 F. 41.0 F.
Wed Oct 9 04:08:05 2019 42.0 F. 41.0 F.
Wed Oct 9 05:08:04 2019 42.0 F. 39.9 F.
Wed Oct 9 06:08:04 2019 40.0 F. 39.9 F.
Wed Oct 9 07:08:04 2019 40.0 F. 39.0 F.
Wed Oct 9 08:08:05 2019 45.0 F. 44.1 F.
Wed Oct 9 09:08:05 2019 45.0 F. 44.1 F.
Wed Oct 9 10:08:05 2019 62.0 F. 52.0 F.
Wed Oct 9 11:08:05 2019 69.0 F. 55.0 F.
Wed Oct 9 12:08:05 2019 74.0 F. 53.1 F.
Wed Oct 9 13:08:05 2019 76.0 F. 54.0 F.
Wed Oct 9 14:08:05 2019 77.0 F. 53.1 F.
Wed Oct 9 15:09:00 2019
Wed Oct 9 16:09:00 2019
Wed Oct 9 17:09:00 2019
Wed Oct 9 18:09:00 2019
Wed Oct 9 19:08:10 2019 64.0 F. 52.0 F.
Wed Oct 9 20:08:40 2019
Wed Oct 9 21:08:05 2019 58.0 F. 53.1 F.
Wed Oct 9 22:08:04 2019 59.0 F. 53.1 F.
Wed Oct 9 23:08:04 2019 61.0 F. 53.1 F.
Thu Oct 10 00:08:05 2019 61.0 F. 54.0 F.
Thu Oct 10 01:08:04 2019 61.0 F. 55.0 F.
Thu Oct 10 02:08:04 2019 61.0 F. 55.0 F.
Thu Oct 10 03:08:05 2019 55.0 F. 53.1 F.
Thu Oct 10 04:08:04 2019 56.0 F. 54.0 F.
Thu Oct 10 05:08:05 2019 55.0 F. 53.1 F.
Thu Oct 10 06:08:05 2019 55.0 F. 54.0 F.
Thu Oct 10 07:08:05 2019 58.0 F. 55.9 F.
Thu Oct 10 08:08:05 2019 58.0 F. 55.9 F.
Thu Oct 10 09:08:04 2019 66.0 F. 62.1 F.
Thu Oct 10 10:08:05 2019 70.0 F. 62.1 F.
Thu Oct 10 11:08:10 2019 74.0 F. 63.0 F.
Thu Oct 10 12:08:40 2019
Thu Oct 10 13:08:40 2019
Thu Oct 10 14:08:41 2019
Thu Oct 10 15:08:13 2019 82.0 F. 64.0 F.
Thu Oct 10 16:08:32 2019
Thu Oct 10 17:08:04 2019 82.0 F. 64.0 F.
Thu Oct 10 18:08:04 2019 82.0 F. 64.0 F.
Thu Oct 10 19:08:04 2019 82.0 F. 64.0 F.
Thu Oct 10 20:08:05 2019 82.0 F. 64.0 F.
Thu Oct 10 21:08:04 2019 82.0 F. 64.0 F.
Thu Oct 10 22:08:05 2019 82.0 F. 64.0 F.
Thu Oct 10 23:08:05 2019 82.0 F. 64.0 F.
Fri Oct 11 00:08:05 2019 82.0 F. 64.0 F.
Fri Oct 11 01:08:04 2019 82.0 F. 64.0 F.
Fri Oct 11 02:08:04 2019 82.0 F. 64.0 F.
Fri Oct 11 03:08:04 2019 82.0 F. 64.0 F.
Fri Oct 11 04:08:04 2019 82.0 F. 64.0 F.
Fri Oct 11 05:08:04 2019 82.0 F. 64.0 F.
Fri Oct 11 06:08:05 2019 82.0 F. 64.0 F.
Fri Oct 11 07:08:04 2019 66.0 F. 64.0 F.
Fri Oct 11 08:08:05 2019 66.0 F. 64.0 F.
Fri Oct 11 09:08:04 2019 66.0 F. 64.0 F.
Fri Oct 11 10:08:04 2019 59.0 F. 57.0 F.
Fri Oct 11 11:08:04 2019 52.0 F. 51.1 F.
Fri Oct 11 12:08:05 2019 50.0 F. 48.0 F.
Fri Oct 11 13:08:06 2019 49.0 F. 46.0 F.
Fri Oct 11 14:08:05 2019 49.0 F. 46.0 F.
Fri Oct 11 15:08:04 2019 48.0 F. 45.0 F.
Fri Oct 11 16:08:04 2019 46.0 F. 43.0 F.
Fri Oct 11 17:08:05 2019 46.0 F. 43.0 F.
Fri Oct 11 18:08:05 2019 47.0 F. 42.1 F.
Fri Oct 11 19:08:05 2019 45.0 F. 37.0 F.
Fri Oct 11 20:08:05 2019 43.0 F. 37.9 F.
Fri Oct 11 21:08:06 2019 43.0 F. 37.0 F.
Fri Oct 11 22:08:04 2019 43.0 F. 37.0 F.
Fri Oct 11 23:08:05 2019 39.0 F. 36.0 F.
Sat Oct 12 00:08:04 2019 37.0 F. 35.1 F.
Sat Oct 12 01:08:05 2019 37.0 F. 35.1 F.
Sat Oct 12 02:08:05 2019 36.0 F. 35.1 F.
Sat Oct 12 03:08:05 2019 36.0 F. 34.0 F.
Sat Oct 12 04:08:05 2019 34.0 F. 33.1 F.
Sat Oct 12 05:08:05 2019 34.0 F. 33.1 F.
Sat Oct 12 06:08:05 2019 34.0 F. 32.0 F.
Sat Oct 12 07:08:05 2019 33.0 F. 32.0 F.
Sat Oct 12 08:08:05 2019 35.0 F. 34.0 F.
Sat Oct 12 09:08:05 2019 42.0 F. 37.9 F.
Sat Oct 12 10:08:05 2019 47.0 F. 37.0 F.
Sat Oct 12 11:08:05 2019 51.0 F. 30.0 F.
Sat Oct 12 12:08:05 2019 52.0 F. 30.9 F.
Sat Oct 12 13:08:04 2019 52.0 F. 30.9 F.
Sat Oct 12 14:08:04 2019 55.0 F. 30.9 F.
Sat Oct 12 15:08:06 2019 58.0 F. 28.9 F.
Sat Oct 12 16:08:05 2019 60.0 F. 30.9 F.
Sat Oct 12 17:08:05 2019 60.0 F. 30.9 F.
Sat Oct 12 18:08:05 2019 55.0 F. 32.0 F.
Sat Oct 12 19:08:04 2019 49.0 F. 35.1 F.
Sat Oct 12 20:08:05 2019 45.0 F. 36.0 F.
Sat Oct 12 21:08:06 2019 43.0 F. 35.1 F.
Sat Oct 12 22:08:04 2019 43.0 F. 35.1 F.
Sat Oct 12 23:08:05 2019 41.0 F. 35.1 F.
Sun Oct 13 00:08:04 2019 38.0 F. 34.0 F.
Sun Oct 13 01:08:05 2019 38.0 F. 34.0 F.
Sun Oct 13 02:08:04 2019 39.0 F. 34.0 F.
Sun Oct 13 03:08:04 2019 37.0 F. 34.0 F.
Sun Oct 13 04:08:05 2019 37.0 F. 34.0 F.
Sun Oct 13 05:08:05 2019 36.0 F. 33.1 F.
Sun Oct 13 06:08:04 2019 38.0 F. 34.0 F.
Sun Oct 13 07:08:05 2019 38.0 F. 34.0 F.
Sun Oct 13 08:08:04 2019 42.0 F. 36.0 F.
Sun Oct 13 09:08:05 2019 42.0 F. 36.0 F.
Sun Oct 13 10:08:05 2019 57.0 F. 37.9 F.
Sun Oct 13 11:08:04 2019 61.0 F. 37.9 F.
Sun Oct 13 12:08:04 2019 65.0 F. 36.0 F.
Sun Oct 13 13:08:05 2019 68.0 F. 36.0 F.
Sun Oct 13 14:08:05 2019 70.0 F. 37.0 F.
Sun Oct 13 15:08:05 2019 70.0 F. 36.0 F.
Sun Oct 13 16:08:05 2019 70.0 F. 36.0 F.
Sun Oct 13 17:08:05 2019 68.0 F. 39.0 F.
Sun Oct 13 18:08:05 2019 64.0 F. 41.0 F.
Sun Oct 13 19:08:05 2019 54.0 F. 42.1 F.
Sun Oct 13 20:08:05 2019 54.0 F. 42.1 F.
Sun Oct 13 21:08:05 2019 52.0 F. 42.1 F.
Sun Oct 13 22:08:05 2019 50.0 F. 39.9 F.
Sun Oct 13 23:08:05 2019 49.0 F. 39.0 F.
Mon Oct 14 00:08:05 2019 49.0 F. 39.0 F.
Mon Oct 14 01:08:04 2019 49.0 F. 39.9 F.
Mon Oct 14 02:08:05 2019 43.0 F. 39.0 F.
Mon Oct 14 03:08:05 2019 43.0 F. 39.0 F.
Mon Oct 14 04:08:05 2019 41.0 F. 37.9 F.
Mon Oct 14 05:08:06 2019 40.0 F. 37.9 F.
Mon Oct 14 06:08:04 2019 39.0 F. 37.0 F.
Mon Oct 14 07:08:04 2019 38.0 F. 37.0 F.
Mon Oct 14 08:08:04 2019 42.0 F. 39.9 F.
Mon Oct 14 09:08:05 2019 50.0 F. 45.0 F.
Mon Oct 14 10:08:05 2019 58.0 F. 44.1 F.
Mon Oct 14 11:08:04 2019 58.0 F. 44.1 F.
Mon Oct 14 12:08:05 2019 69.0 F. 35.1 F.
Mon Oct 14 13:08:04 2019 70.0 F. 37.9 F.
Mon Oct 14 14:08:20 2019 73.0 F. 39.9 F.
Mon Oct 14 15:08:05 2019 74.0 F. 42.1 F.
Mon Oct 14 16:08:05 2019 74.0 F. 42.1 F.
Mon Oct 14 17:08:04 2019 73.0 F. 42.1 F.
Mon Oct 14 18:08:04 2019 69.0 F. 46.0 F.
Mon Oct 14 19:08:05 2019 57.0 F. 48.0 F.
Mon Oct 14 20:08:05 2019 55.0 F. 48.0 F.
Mon Oct 14 21:08:05 2019 51.0 F. 46.9 F.
Mon Oct 14 22:08:04 2019 51.0 F. 46.9 F.
Mon Oct 14 23:08:05 2019 49.0 F. 46.0 F.
Tue Oct 15 00:08:04 2019 47.0 F. 45.0 F.
Tue Oct 15 01:08:05 2019 46.0 F. 44.1 F.
Tue Oct 15 02:08:04 2019 46.0 F. 44.1 F.
Tue Oct 15 03:08:05 2019 45.0 F. 43.0 F.
Tue Oct 15 04:08:04 2019 46.0 F. 44.1 F.
Tue Oct 15 05:08:04 2019 48.0 F. 45.0 F.
Tue Oct 15 06:08:05 2019 48.0 F. 46.0 F.
Tue Oct 15 07:08:06 2019 50.0 F. 46.9 F.
Tue Oct 15 08:08:05 2019 53.0 F. 50.0 F.
Tue Oct 15 09:08:04 2019 60.0 F. 53.1 F.
Tue Oct 15 10:08:05 2019 62.0 F. 53.1 F.
Tue Oct 15 11:08:04 2019 62.0 F. 53.1 F.
Tue Oct 15 12:08:05 2019 67.0 F. 55.0 F.
Tue Oct 15 13:08:05 2019 68.0 F. 55.9 F.
Tue Oct 15 14:08:05 2019 68.0 F. 57.9 F.
Tue Oct 15 15:08:05 2019 68.0 F. 59.0 F.
Tue Oct 15 16:08:05 2019 67.0 F. 59.0 F.
Tue Oct 15 17:08:04 2019 66.0 F. 61.0 F.
Tue Oct 15 18:08:05 2019 66.0 F. 61.0 F.
Tue Oct 15 19:08:05 2019 63.0 F. 60.1 F.
Tue Oct 15 20:08:10 2019 63.0 F. 61.0 F.
Tue Oct 15 21:08:05 2019 60.0 F. 57.9 F.
Tue Oct 15 22:08:05 2019 64.0 F. 62.1 F.
Tue Oct 15 23:08:05 2019 64.0 F. 54.0 F.
Wed Oct 16 00:08:04 2019 61.0 F. 42.1 F.
Wed Oct 16 01:08:04 2019 57.0 F. 39.9 F.
Wed Oct 16 02:08:05 2019 52.0 F. 39.0 F.
Wed Oct 16 03:08:04 2019 50.0 F. 35.1 F.
Wed Oct 16 04:08:05 2019 48.0 F. 35.1 F.
Wed Oct 16 05:08:05 2019 46.0 F. 35.1 F.
Wed Oct 16 06:08:05 2019 45.0 F. 36.0 F.
Wed Oct 16 07:08:05 2019 44.0 F. 36.0 F.
Wed Oct 16 08:08:05 2019 45.0 F. 36.0 F.
Wed Oct 16 09:08:04 2019 48.0 F. 37.0 F.
Wed Oct 16 10:08:05 2019 51.0 F. 37.9 F.
Wed Oct 16 11:08:04 2019 55.0 F. 37.9 F.
Wed Oct 16 12:08:04 2019 55.0 F. 36.0 F.
Wed Oct 16 13:08:05 2019 55.0 F. 37.0 F.
Wed Oct 16 14:08:04 2019 57.0 F. 37.0 F.
Wed Oct 16 15:08:04 2019 56.0 F. 36.0 F.
Wed Oct 16 16:08:04 2019 54.0 F. 37.0 F.
Wed Oct 16 17:08:05 2019 54.0 F. 37.0 F.
Wed Oct 16 18:08:05 2019 52.0 F. 37.0 F.
Wed Oct 16 19:08:04 2019 48.0 F. 37.0 F.
Wed Oct 16 20:08:05 2019 44.0 F. 37.9 F.
Wed Oct 16 21:08:04 2019 40.0 F. 37.0 F.
Wed Oct 16 22:08:05 2019 40.0 F. 37.0 F.
Wed Oct 16 23:08:04 2019 41.0 F. 39.0 F.
Thu Oct 17 00:08:04 2019 37.0 F. 35.1 F.
Thu Oct 17 01:08:05 2019 37.0 F. 34.0 F.
Thu Oct 17 02:08:04 2019 36.0 F. 34.0 F.
Thu Oct 17 03:08:05 2019 37.0 F. 35.1 F.
Thu Oct 17 04:08:04 2019 36.0 F. 35.1 F.
Thu Oct 17 05:08:05 2019 34.0 F. 34.0 F.
Thu Oct 17 06:08:05 2019 35.0 F. 34.0 F.
Thu Oct 17 07:08:04 2019 34.0 F. 32.0 F.
Thu Oct 17 08:08:05 2019 37.0 F. 36.0 F.
Thu Oct 17 09:08:19 2019 45.0 F. 42.1 F.
Thu Oct 17 10:08:05 2019 51.0 F. 42.1 F.
Thu Oct 17 11:08:05 2019 55.0 F. 37.0 F.
Thu Oct 17 12:08:05 2019 57.0 F. 37.9 F.
Thu Oct 17 13:08:05 2019 59.0 F. 37.9 F.
Thu Oct 17 14:08:05 2019 61.0 F. 37.9 F.
Thu Oct 17 15:08:05 2019 62.0 F. 37.0 F.
Thu Oct 17 16:08:05 2019 62.0 F. 37.9 F.
Thu Oct 17 17:08:05 2019 62.0 F. 36.0 F.
Thu Oct 17 18:08:05 2019 58.0 F. 39.0 F.
Thu Oct 17 19:08:05 2019 50.0 F. 39.9 F.
Thu Oct 17 20:08:10 2019 46.0 F. 39.9 F.
Thu Oct 17 21:08:05 2019 44.0 F. 41.0 F.
Thu Oct 17 22:08:05 2019 42.0 F. 39.0 F.
Thu Oct 17 23:08:04 2019 41.0 F. 39.0 F.
Fri Oct 18 00:08:05 2019 38.0 F. 37.0 F.
Fri Oct 18 01:08:04 2019 37.0 F. 36.0 F.
Fri Oct 18 02:08:05 2019 38.0 F. 37.0 F.
Fri Oct 18 03:08:05 2019 36.0 F. 35.1 F.
Fri Oct 18 04:08:04 2019 36.0 F. 35.1 F.
Fri Oct 18 05:08:04 2019 36.0 F. 34.0 F.
Fri Oct 18 06:08:04 2019 34.0 F. 33.1 F.
Fri Oct 18 07:08:05 2019 34.0 F. 32.0 F.
Fri Oct 18 08:08:05 2019 36.0 F. 35.1 F.
Fri Oct 18 09:08:04 2019 47.0 F. 43.0 F.
Fri Oct 18 10:08:04 2019 55.0 F. 44.1 F.
Fri Oct 18 11:08:05 2019 55.0 F. 44.1 F.
Fri Oct 18 12:08:04 2019 55.0 F. 44.1 F.
Fri Oct 18 13:08:05 2019 66.0 F. 39.9 F.
Fri Oct 18 14:08:04 2019 66.0 F. 39.9 F.
Fri Oct 18 15:08:05 2019 69.0 F. 37.0 F.
Fri Oct 18 16:08:04 2019 69.0 F. 37.0 F.
Fri Oct 18 17:08:04 2019 68.0 F. 37.0 F.
Fri Oct 18 18:08:04 2019 63.0 F. 39.0 F.
Fri Oct 18 19:08:05 2019 57.0 F. 39.0 F.
Fri Oct 18 20:08:04 2019 49.0 F. 42.1 F.
Fri Oct 18 21:08:04 2019 48.0 F. 41.0 F.
Fri Oct 18 22:08:05 2019 45.0 F. 39.9 F.
Fri Oct 18 23:08:04 2019 43.0 F. 41.0 F.
Sat Oct 19 00:08:05 2019 46.0 F. 42.1 F.
Sat Oct 19 01:08:04 2019 42.0 F. 39.9 F.
Sat Oct 19 02:08:05 2019 41.0 F. 39.9 F.
Sat Oct 19 03:08:05 2019 40.0 F. 37.9 F.
Sat Oct 19 04:08:05 2019 38.0 F. 37.9 F.
Sat Oct 19 05:08:04 2019 38.0 F. 36.0 F.
Sat Oct 19 06:08:05 2019 38.0 F. 37.0 F.
Sat Oct 19 07:08:05 2019 39.0 F. 37.9 F.
Sat Oct 19 08:08:04 2019 39.0 F. 37.9 F.
Sat Oct 19 09:08:05 2019 51.0 F. 45.0 F.
Sat Oct 19 10:08:06 2019 60.0 F. 46.0 F.
Sat Oct 19 11:08:05 2019 60.0 F. 46.0 F.
Sat Oct 19 12:08:05 2019 65.0 F. 45.0 F.
Sat Oct 19 13:08:04 2019 69.0 F. 45.0 F.
Sat Oct 19 14:08:05 2019 72.0 F. 44.1 F.
Sat Oct 19 15:08:04 2019 72.0 F. 44.1 F.
Sat Oct 19 16:08:05 2019 72.0 F. 43.0 F.
Sat Oct 19 17:08:04 2019 69.0 F. 46.0 F.
Sat Oct 19 18:08:05 2019 69.0 F. 46.0 F.
Sat Oct 19 19:08:05 2019 59.0 F. 48.0 F.
Sat Oct 19 20:08:05 2019 58.0 F. 48.9 F.
Sat Oct 19 21:08:05 2019 54.0 F. 48.9 F.
Sat Oct 19 22:08:05 2019 53.0 F. 48.0 F.
Sat Oct 19 23:08:04 2019 52.0 F. 48.0 F.
Sun Oct 20 00:08:04 2019 52.0 F. 48.0 F.
Sun Oct 20 01:08:04 2019 49.0 F. 46.9 F.
Sun Oct 20 02:08:05 2019 48.0 F. 46.0 F.
Sun Oct 20 03:08:05 2019 47.0 F. 45.0 F.
Sun Oct 20 04:08:05 2019 45.0 F. 44.1 F.
Sun Oct 20 05:08:05 2019 45.0 F. 44.1 F.
Sun Oct 20 06:08:04 2019 50.0 F. 48.0 F.
Sun Oct 20 07:08:05 2019 49.0 F. 46.9 F.
Sun Oct 20 08:08:04 2019 49.0 F. 48.0 F.
Sun Oct 20 09:08:05 2019 57.0 F. 53.1 F.
Sun Oct 20 10:08:04 2019 59.0 F. 53.1 F.
Sun Oct 20 11:08:04 2019 61.0 F. 52.0 F.
Sun Oct 20 12:08:05 2019 65.0 F. 53.1 F.
Sun Oct 20 13:08:05 2019 69.0 F. 53.1 F.
Sun Oct 20 14:08:05 2019 70.0 F. 53.1 F.
Sun Oct 20 15:08:05 2019 70.0 F. 53.1 F.
Sun Oct 20 16:08:04 2019 72.0 F. 54.0 F.
Sun Oct 20 17:08:05 2019 71.0 F. 54.0 F.
Sun Oct 20 18:08:04 2019 71.0 F. 54.0 F.
Sun Oct 20 19:08:04 2019 66.0 F. 54.0 F.
Sun Oct 20 20:08:05 2019 59.0 F. 54.0 F.
Sun Oct 20 21:08:05 2019 57.0 F. 53.1 F.
Sun Oct 20 22:08:04 2019 57.0 F. 52.0 F.
Sun Oct 20 23:08:06 2019 58.0 F. 52.0 F.
Mon Oct 21 00:08:05 2019 60.0 F. 53.1 F.
Mon Oct 21 01:08:05 2019 60.0 F. 54.0 F.
Mon Oct 21 02:08:06 2019 63.0 F. 55.9 F.
Mon Oct 21 03:08:05 2019 64.0 F. 57.0 F.
Mon Oct 21 04:08:05 2019 63.0 F. 60.1 F.
Mon Oct 21 05:08:05 2019 63.0 F. 60.1 F.
Mon Oct 21 06:08:05 2019 63.0 F. 61.0 F.
Mon Oct 21 07:08:04 2019 63.0 F. 61.0 F.
Mon Oct 21 08:08:04 2019 62.0 F. 59.0 F.
Mon Oct 21 09:08:04 2019 62.0 F. 59.0 F.
Mon Oct 21 10:08:05 2019 63.0 F. 59.0 F.
Mon Oct 21 11:08:05 2019 64.0 F. 59.0 F.
Mon Oct 21 12:08:05 2019 65.0 F. 59.0 F.
Mon Oct 21 13:08:05 2019 65.0 F. 61.0 F.
Mon Oct 21 14:08:04 2019 65.0 F. 61.0 F.
Mon Oct 21 15:08:05 2019 66.0 F. 59.0 F.
Mon Oct 21 16:08:05 2019 70.0 F. 59.0 F.
Mon Oct 21 17:08:05 2019 69.0 F. 53.1 F.